Voltar ao catálogo

BREEZE-M DEB

LostHEO
NORAD 39995·DEBRIS·🇷🇺 Russia

Lançado Mar 14, 2008 de Baikonur Cosmodrome

Loading…

Próximas Passagens (próximas 24 horas)

TLE

ObsoletoSource: Space-Track

Época: May 12, 2023, 06:15 UTC

1 39995U 08011DU  23132.26051021 -.00000869  00000-0 -18924-1 0  9993
2 39995  49.5381  12.7229 6398693 239.9471 341.9019  3.08622306125172

Acompanhe BREEZE-M DEB em tempo real com AllMySat

Download on the App Store